[[{"header":{"parameterUnit":"m.s-1","parameterCategory":1,"la1":30.2991,"la2":30.254,"lo1":-89.0895,"lo2":-89.0444,"dy":0.0017,"dx":0.0017,"nx":28,"ny":28,"refTime":"2025-07-11T09:00:00:Z","depth":0,"parameterNumber":2,"parameterNumberName":"U-component_of_WINDS"},"data":[0,0,0,0,0,0,0,0,0,0,0,0,0,0,0,0,0,0,0,0,0,0,0,0,0,0,0,0,0,0,0,0,0,0,0,0,0,0,0,0,0,0,0,0,0,0,0,0,0,0,0,0,0,0,0,0,0,0,2.5862,2.5863,0,2.5986,2.5987,2.5988,2.5944,2.5941,2.5938,2.5935,2.6065,2.6071,2.6077,0,0,0,0,0,0,0,0,0,0,0,0,0,2.5588,2.5593,2.5862,2.5863,2.5865,2.5985,2.5987,2.5989,2.5944,2.5941,2.5937,2.5934,2.6063,2.607,2.6078,0,0,0,0,0,0,0,0,0,0,0,0,0,2.5709,2.5595,2.5861,2.5857,2.5858,2.5985,2.5987,2.5989,2.5945,2.5941,2.5936,2.5932,2.6061,2.607,2.6079,2.6219,0,0,2.6106,2.611,0,0,0,0,0,0,0,0,2.5702,2.5719,2.5856,2.5857,2.5859,2.5945,2.5938,2.6066,2.5946,2.5912,2.5935,2.593,2.6029,2.604,2.6073,2.6225,2.623,2.6107,2.6113,2.6117,2.6119,0,0,0,0,0,0,0,2.5694,2.5713,2.5911,2.5858,2.586,2.5849,2.5862,2.5962,2.5992,2.5914,2.5911,2.5927,2.6029,2.6064,2.6075,2.6232,2.6107,2.6115,2.6121,2.6124,2.6504,2.6509,0,0,0,0,0,0,2.5684,2.5707,2.5907,2.5914,2.5768,2.5858,2.5872,2.5921,2.5991,2.5998,2.593,2.5924,2.6051,2.6065,2.608,2.6248,2.6117,2.6125,2.613,2.65,2.6505,2.651,0,0,0,0,0,0,2.5679,2.5703,2.5902,2.581,2.5834,2.5867,2.5923,2.5926,2.5961,2.6003,2.6008,2.5961,2.6048,2.6067,2.6184,2.6252,2.6129,2.6138,2.6494,2.6501,2.6508,2.6585,0,0,0,0,0,0,2.5671,2.5701,2.5754,2.5811,2.5839,2.6004,2.5927,2.5931,2.5977,2.597,2.6033,2.6039,2.6046,2.6171,2.6193,2.6262,2.6145,2.6488,2.6497,2.6506,2.6577,2.6594,2.6608,0,0,0,0,0,2.5662,2.5772,2.5757,2.5782,2.5907,2.6008,2.6024,2.6028,2.5982,2.6036,2.6063,2.6037,2.624,2.6183,2.6208,2.6281,2.6484,2.6495,2.6505,2.6569,2.659,2.6608,0,0,0,0,0,0,2.5724,2.5779,2.5764,2.5896,2.5947,2.6,2.6068,2.6051,2.6117,2.6108,2.6112,2.6126,2.6246,2.6275,2.621,2.6419,2.6356,2.6371,2.6396,2.6416,2.6432,2.6423,2.6152,0,0,0,0,0,2.5752,2.5829,2.5874,2.5986,2.6013,2.6036,2.608,2.6079,2.6133,2.6155,2.619,2.6244,2.6319,2.6369,2.6441,2.658,2.6593,2.6642,2.6658,2.6671,2.6685,2.676,2.6782,2.6545,2.6545,2.6544,0,0,2.5813,2.5853,2.5902,2.6,2.6039,2.6119,2.6055,2.6142,2.6201,2.6168,2.628,2.6308,2.6368,2.6497,2.6555,2.6524,2.6753,2.6684,2.6694,2.6701,2.6773,2.6795,2.6815,2.6552,2.655,2.6549,0,0,2.5965,2.6003,2.61,2.614,2.62,2.6215,2.6238,2.6294,2.631,2.6422,2.6399,2.647,2.6601,2.6644,2.6683,2.685,2.6829,2.6873,2.6956,2.7029,2.7048,2.7064,2.7123,2.7144,2.6887,2.6887,2.6887,0,2.6033,2.6151,2.6152,2.6241,2.6285,2.6257,2.6355,2.6395,2.6476,2.6507,2.6471,2.6634,2.6673,2.681,2.685,2.6883,2.691,2.6866,2.7045,2.7062,2.7077,2.7133,2.7155,2.6892,2.6891,2.6891,2.689,0,2.6232,2.6314,2.6386,2.6463,2.6515,2.6608,2.6624,2.6676,2.667,2.6688,2.6803,2.6848,2.6928,2.6961,2.6956,2.7098,2.7077,2.7043,2.6979,2.7105,2.7157,2.7179,2.6899,2.6897,2.6896,2.6894,0,0,2.6428,2.6503,2.6529,2.6563,2.6627,2.6691,2.6783,2.686,2.6904,2.6961,2.7038,2.7149,2.7117,2.7162,2.7162,2.7226,2.7354,2.7185,2.7186,2.7214,2.7512,2.7536,2.7561,2.734,2.7344,2.7348,2.7507,0,2.6584,2.6744,2.6747,2.6894,2.697,2.6943,2.7023,2.7071,2.7091,2.7158,2.718,2.7258,2.7211,2.7237,2.7299,2.7325,2.7414,2.7314,2.7412,2.7416,2.7398,2.7589,2.7616,2.7764,2.7527,2.7531,2.7533,0,2.6788,2.6849,2.7003,2.7055,2.7087,2.7158,2.7229,2.7293,2.7347,2.7357,2.7406,2.7396,2.749,2.7422,2.7552,2.7484,2.7524,2.7543,2.7548,2.7558,2.7482,2.7604,2.7811,2.7833,2.7566,2.7563,2.7561,0,2.6914,2.7036,2.7143,2.7173,2.7236,2.7287,2.7316,2.7365,2.7411,2.7472,2.7502,2.7574,2.7614,2.767,2.768,2.7631,2.781,2.7744,2.7821,2.7821,2.786,2.7857,2.8077,2.7886,2.7886,2.7886,2.7885,0,2.7088,2.7184,2.7201,2.7267,2.7373,2.7375,2.748,2.7505,2.7549,2.7619,2.7602,2.7669,2.7678,2.7747,2.7756,2.7861,2.7879,2.789,2.7891,2.7892,2.789,2.7918,2.7908,2.7891,2.789,2.7889,2.7888,0,2.7248,2.7263,2.7378,2.7428,2.7442,2.7518,2.756,2.7624,2.764,2.773,2.7751,2.7778,2.7859,2.7874,2.797,2.7976,2.8101,2.8092,2.8083,2.8082,2.8158,2.815,2.8403,2.8436,2.8224,2.8226,2.8227,0,2.7358,2.7431,2.7487,2.7532,2.7563,2.7637,2.7683,2.7688,2.7736,2.7802,2.7858,2.7936,2.7999,2.8129,2.8157,2.823,2.8223,2.8306,2.8234,2.8231,2.8223,2.8219,2.8226,2.832,2.8322,2.8324,2.8326,0,2.7552,2.7555,2.7622,2.7691,2.7746,2.7801,2.7853,2.7891,2.7903,2.7959,2.804,2.8089,2.8185,2.8263,2.8336,2.8366,2.8348,2.8348,2.837,2.8371,2.8362,2.8367,2.812,2.8343,2.8341,2.834,2.8339,2.8338,2.769,2.7753,2.7802,2.7876,2.7915,2.7964,2.8025,2.8049,2.8116,2.8194,2.8193,2.8282,2.8333,2.8428,2.8463,2.8533,2.8506,2.8538,2.8546,2.8553,2.856,2.8351,2.8546,2.8546,2.8545,2.8545,2.8544,0,2.7883,2.7912,2.798,2.8053,2.8111,2.8088,2.8144,2.8194,2.8272,2.8321,2.8382,2.8475,2.8551,2.8584,2.8658,2.8708,2.8701,2.8727,2.8723,2.873,2.858,2.8553,2.8731,2.8731,2.8731,2.8731,2.8731,2.8731,2.799,2.8094,2.8103,2.8226,2.8255,2.8341,2.8375,2.842,2.8458,2.8562,2.8624,2.8645,2.8687,2.8764,2.8832,2.884,2.8868,2.8897,2.8902,2.876,2.8741,2.8723,2.8698,2.8903,2.8904,2.9046,2.9048,2.9049]},{"header":{"parameterUnit":"m.s-1","parameterCategory":1,"la1":30.2991,"la2":30.254,"lo1":-89.0895,"lo2":-89.0444,"dy":0.0017,"dx":0.0017,"nx":28,"ny":28,"refTime":"2025-07-11T09:00:00:Z","depth":0,"parameterNumber":3,"parameterNumberName":"V-component_of_WINDS"},"data":[0,0,0,0,0,0,0,0,0,0,0,0,0,0,0,0,0,0,0,0,0,0,0,0,0,0,0,0,0,0,0,0,0,0,0,0,0,0,0,0,0,0,0,0,0,0,0,0,0,0,0,0,0,0,0,0,0,0,-1.5296,-1.5297,0,-1.5368,-1.5369,-1.5369,-1.5398,-1.5398,-1.5398,-1.5398,-1.547,-1.5472,-1.5475,0,0,0,0,0,0,0,0,0,0,0,0,0,-1.5184,-1.5186,-1.5296,-1.5297,-1.5298,-1.5368,-1.5369,-1.537,-1.5398,-1.5398,-1.5398,-1.5398,-1.547,-1.5472,-1.5475,0,0,0,0,0,0,0,0,0,0,0,0,0,-1.5242,-1.5186,-1.5296,-1.5321,-1.5324,-1.5368,-1.5369,-1.537,-1.5398,-1.5398,-1.5398,-1.5398,-1.5469,-1.5472,-1.5475,-1.55,0,0,-1.5485,-1.5486,0,0,0,0,0,0,0,0,-1.5238,-1.5246,-1.5316,-1.5319,-1.5322,-1.5374,-1.5356,-1.5413,-1.5398,-1.537,-1.5398,-1.5397,-1.5438,-1.5444,-1.5458,-1.5503,-1.5506,-1.5485,-1.5487,-1.5488,-1.5489,0,0,0,0,0,0,0,-1.5234,-1.5243,-1.5325,-1.5317,-1.5321,-1.5328,-1.5336,-1.5367,-1.5405,-1.5372,-1.5375,-1.5383,-1.544,-1.5455,-1.546,-1.5507,-1.5485,-1.5488,-1.549,-1.5491,-1.5576,-1.5576,0,0,0,0,0,0,-1.5226,-1.5239,-1.5322,-1.5327,-1.5279,-1.533,-1.5339,-1.5358,-1.5404,-1.5411,-1.5383,-1.5384,-1.545,-1.5456,-1.5463,-1.5495,-1.5488,-1.5491,-1.5493,-1.5576,-1.5576,-1.5577,0,0,0,0,0,0,-1.5224,-1.5233,-1.5319,-1.5284,-1.5295,-1.5332,-1.5353,-1.5359,-1.5374,-1.5412,-1.5419,-1.5391,-1.545,-1.5458,-1.549,-1.5497,-1.5493,-1.5495,-1.5575,-1.5576,-1.5576,-1.5558,0,0,0,0,0,0,-1.522,-1.5232,-1.5242,-1.5284,-1.5297,-1.5346,-1.5353,-1.5361,-1.5379,-1.5381,-1.5422,-1.5428,-1.545,-1.5485,-1.5493,-1.5502,-1.5498,-1.5575,-1.5576,-1.5576,-1.5558,-1.5558,-1.5558,0,0,0,0,0,-1.5216,-1.5234,-1.5242,-1.5252,-1.531,-1.5346,-1.5354,-1.5379,-1.538,-1.539,-1.5415,-1.5427,-1.5495,-1.5489,-1.5498,-1.5507,-1.5574,-1.5575,-1.5576,-1.5559,-1.5558,-1.5558,0,0,0,0,0,0,-1.5192,-1.524,-1.525,-1.5281,-1.5309,-1.5351,-1.5364,-1.5377,-1.5406,-1.5406,-1.5436,-1.5445,-1.5474,-1.5494,-1.5485,-1.5533,-1.5536,-1.5539,-1.5519,-1.5519,-1.5519,-1.5514,-1.55,0,0,0,0,0,-1.519,-1.5216,-1.5256,-1.528,-1.5294,-1.5327,-1.5343,-1.536,-1.539,-1.5402,-1.5429,-1.5458,-1.5486,-1.5504,-1.5532,-1.5562,-1.5571,-1.5573,-1.5572,-1.5572,-1.5574,-1.5591,-1.5593,-1.5579,-1.5579,-1.5579,0,0,-1.5187,-1.5216,-1.5231,-1.5276,-1.53,-1.5326,-1.5336,-1.5363,-1.5382,-1.5406,-1.5438,-1.5459,-1.5493,-1.5524,-1.5539,-1.5542,-1.558,-1.5573,-1.5572,-1.5575,-1.5592,-1.5593,-1.5595,-1.558,-1.558,-1.558,0,0,-1.5194,-1.5219,-1.5242,-1.5265,-1.5301,-1.5323,-1.5328,-1.5368,-1.5383,-1.5416,-1.5434,-1.5458,-1.5505,-1.5529,-1.5547,-1.5564,-1.5576,-1.5572,-1.5571,-1.5587,-1.5588,-1.5589,-1.5595,-1.5597,-1.5574,-1.5574,-1.5574,0,-1.5185,-1.5225,-1.5252,-1.5278,-1.5297,-1.532,-1.5343,-1.5365,-1.5408,-1.5421,-1.5423,-1.5484,-1.5508,-1.5545,-1.5549,-1.5563,-1.557,-1.5567,-1.5586,-1.5587,-1.5589,-1.5595,-1.5597,-1.5573,-1.5573,-1.5573,-1.5573,0,-1.5212,-1.524,-1.5254,-1.5295,-1.5316,-1.5341,-1.5371,-1.5389,-1.5404,-1.5426,-1.5459,-1.5489,-1.5524,-1.5534,-1.5549,-1.5573,-1.5573,-1.558,-1.5583,-1.5589,-1.5595,-1.5597,-1.5572,-1.5572,-1.5572,-1.5572,0,0,-1.5206,-1.5262,-1.5267,-1.5286,-1.5327,-1.5349,-1.5374,-1.5408,-1.5423,-1.5452,-1.5475,-1.5515,-1.5521,-1.5542,-1.556,-1.5574,-1.5586,-1.558,-1.5581,-1.558,-1.5614,-1.5609,-1.5611,-1.5594,-1.5595,-1.5595,-1.5612,0,-1.5218,-1.5265,-1.529,-1.5326,-1.5352,-1.5374,-1.5397,-1.5424,-1.5445,-1.547,-1.5493,-1.5521,-1.5528,-1.5541,-1.5556,-1.5581,-1.5593,-1.558,-1.5615,-1.5616,-1.5606,-1.5614,-1.5608,-1.5622,-1.5614,-1.5614,-1.5615,0,-1.5239,-1.5268,-1.5307,-1.5346,-1.5358,-1.5377,-1.541,-1.5434,-1.5466,-1.548,-1.5503,-1.5521,-1.5549,-1.555,-1.5589,-1.5579,-1.5595,-1.561,-1.5611,-1.5615,-1.5615,-1.5618,-1.5627,-1.5629,-1.5619,-1.5618,-1.5618,0,-1.523,-1.5279,-1.5309,-1.5324,-1.537,-1.5384,-1.5403,-1.5435,-1.5454,-1.5484,-1.5496,-1.5528,-1.5545,-1.557,-1.5596,-1.5594,-1.5632,-1.5635,-1.5644,-1.5644,-1.5651,-1.565,-1.5662,-1.5661,-1.5661,-1.5661,-1.5661,0,-1.5242,-1.5264,-1.5305,-1.5323,-1.535,-1.5378,-1.5403,-1.5425,-1.5453,-1.5476,-1.5497,-1.5518,-1.5551,-1.5576,-1.5597,-1.5626,-1.5633,-1.5646,-1.5651,-1.5644,-1.5642,-1.5654,-1.5654,-1.5662,-1.5662,-1.5662,-1.5662,0,-1.5236,-1.5264,-1.5298,-1.5339,-1.535,-1.5367,-1.5403,-1.5421,-1.5443,-1.5472,-1.548,-1.5515,-1.5545,-1.5574,-1.5614,-1.5628,-1.5657,-1.5664,-1.5646,-1.5649,-1.5657,-1.5655,-1.5677,-1.5681,-1.5677,-1.5677,-1.5677,0,-1.5241,-1.5259,-1.5302,-1.5319,-1.5339,-1.5366,-1.5385,-1.5414,-1.5433,-1.5472,-1.5485,-1.5518,-1.5545,-1.5593,-1.5622,-1.5653,-1.566,-1.5666,-1.5665,-1.5658,-1.566,-1.5659,-1.5661,-1.5665,-1.5665,-1.5665,-1.5665,0,-1.5248,-1.5261,-1.5288,-1.5321,-1.5343,-1.537,-1.5398,-1.541,-1.5444,-1.5465,-1.5497,-1.5518,-1.556,-1.5591,-1.5626,-1.5646,-1.5661,-1.5665,-1.5669,-1.5661,-1.565,-1.5656,-1.5645,-1.5664,-1.5664,-1.5664,-1.5664,-1.5664,-1.5248,-1.5265,-1.5298,-1.5328,-1.5351,-1.5377,-1.5396,-1.5421,-1.5448,-1.5484,-1.5499,-1.5531,-1.5564,-1.5612,-1.5632,-1.5658,-1.5661,-1.5666,-1.5668,-1.5668,-1.5667,-1.5646,-1.5664,-1.5664,-1.5664,-1.5664,-1.5664,0,-1.5255,-1.5277,-1.5305,-1.5342,-1.5366,-1.5378,-1.5409,-1.5428,-1.5456,-1.5485,-1.5511,-1.5548,-1.5579,-1.561,-1.5643,-1.5657,-1.5665,-1.5665,-1.5664,-1.5669,-1.5662,-1.5656,-1.5658,-1.5658,-1.5658,-1.5658,-1.5658,-1.5658,-1.5262,-1.5291,-1.5308,-1.535,-1.5373,-1.5404,-1.5421,-1.5444,-1.5467,-1.5507,-1.5533,-1.5553,-1.5583,-1.5618,-1.5647,-1.5656,-1.5667,-1.5665,-1.5675,-1.5669,-1.5669,-1.5669,-1.5663,-1.5667,-1.5667,-1.5679,-1.568,-1.568]}]]